This is the latest recevied weather packets stored in our database for station/object XE2OR-10. If no packets are shown the sender has not sent any weather packets the latest 10 day(s).
| Time | Temp. | Humidity | Pressure | Rain* | Wind** | Luminosity | Snow |
|---|---|---|---|---|---|---|---|
| 1777556029 | 21.67° C | 96% | 1015.8 hPa | 0 mm | - | 22 W/m² | - |
| 1777555729 | 21.67° C | 96% | 1015.8 hPa | 0 mm | - | 21 W/m² | - |
| 1777555432 | 21.67° C | 96% | 1015.6 hPa | 0 mm | - | 20 W/m² | - |
| 1777555129 | 21.67° C | 96% | 1015.5 hPa | 0 mm | - | 21 W/m² | - |
| 1777554832 | 21.67° C | 96% | 1015.2 hPa | 0 mm | - | 16 W/m² | - |
| 1777554529 | 21.67° C | 96% | 1015.2 hPa | 0 mm | - | 10 W/m² | - |
| 1777554229 | 21.67° C | 96% | 1015.1 hPa | 0 mm | - | 10 W/m² | - |
| 1777553929 | 21.67° C | 96% | 1015.3 hPa | 0 mm | - | 6 W/m² | - |
| 1777553632 | 21.67° C | 95% | 1015.1 hPa | 0 mm | - | 6 W/m² | - |
| 1777553329 | 21.67° C | 95% | 1015 hPa | 0 mm | - | 5 W/m² | - |
| 1777553032 | 21.67° C | 95% | 1015 hPa | 0 mm | - | 4 W/m² | - |
| 1777552729 | 21.67° C | 94% | 1015.1 hPa | 0 mm | - | 3 W/m² | - |
| 1777552429 | 22.22° C | 94% | 1015.4 hPa | 0 mm | - | 2 W/m² | - |
| 1777552130 | 22.22° C | 94% | 1015.1 hPa | 0 mm | - | 1 W/m² | - |
| 1777551838 | - | - | - | - | - | - | - |
| 1777551833 | 22.22° C | 93% | 1014.9 hPa | 0 mm | - | 1 W/m² | - |
| 1777551529 | 22.22° C | 92% | 1014.9 hPa | 0 mm | - | 0 W/m² | - |
| 1777551232 | 22.22° C | 92% | 1014.9 hPa | 0 mm | - | 0 W/m² | - |
| 1777550929 | 22.22° C | 92% | 1014.9 hPa | 0 mm | - | 0 W/m² | - |
| 1777550629 | 22.22° C | 92% | 1014.9 hPa | 0 mm | - | 0 W/m² | - |
| 1777550329 | 22.22° C | 91% | 1014.7 hPa | 0 mm | - | 0 W/m² | - |
| 1777550032 | 22.78° C | 91% | 1015.1 hPa | 0 mm | - | 0 W/m² | - |
| 1777549729 | 22.78° C | 91% | 1014.7 hPa | 0 mm | - | 0 W/m² | - |
| 1777549433 | 22.78° C | 91% | 1014.9 hPa | 0 mm | - | 0 W/m² | - |
| 1777549129 | 22.78° C | 91% | 1014.7 hPa | 0 mm | - | 0 W/m² | - |
* Rain latest hour (hover to see other rain measurements)
** Current wind speed in m/s (hover to see current wind gust speed)